This is the latest recevied weather packets stored in our database for station/object IW4CYE-7. If no packets are shown the sender has not sent any weather packets the latest 10 day(s).
| Time | Temp. | Humidity | Pressure | Rain* | Wind** | Luminosity | Snow |
|---|---|---|---|---|---|---|---|
| 1788057442 | 18.89° C | 70% | 1003.4 hPa | 0 mm | - | - | - |
| 1788056842 | 19.44° C | 66% | 1003 hPa | 0 mm | - | - | - |
| 1788056242 | 18.89° C | 66% | 1003 hPa | 0 mm | - | - | - |
| 1788055642 | 18.89° C | 67% | 1003.4 hPa | 0 mm | - | - | - |
| 1788055042 | 18.89° C | 66% | 1003 hPa | 0 mm | - | - | - |
| 1788054442 | 18.33° C | 70% | 1003 hPa | 0 mm | - | - | - |
| 1788053842 | 18.33° C | 68% | 1003.4 hPa | 0 mm | - | - | - |
| 1788053242 | 18.89° C | 68% | 1003 hPa | 0 mm | - | - | - |
| 1788052642 | 18.89° C | 65% | 1003 hPa | 0 mm | - | - | - |
| 1788052042 | 19.44° C | 65% | 1003.4 hPa | 0 mm | - | - | - |
| 1788051442 | 19.44° C | 64% | 1003 hPa | 0 mm | - | - | - |
| 1788050842 | 20° C | 60% | 1003.4 hPa | 0 mm | - | - | - |
| 1788050242 | 20° C | 59% | 1003 hPa | 0 mm | - | - | - |
| 1788049642 | 20° C | 56% | 1003 hPa | 0 mm | - | - | - |
| 1788049042 | 20° C | 57% | 1003 hPa | 0 mm | - | - | - |
| 1788048442 | 20° C | 60% | 1003 hPa | 0 mm | - | - | - |
| 1788047842 | 20.56° C | 58% | 1003 hPa | 0 mm | - | - | - |
| 1788047242 | 20.56° C | 59% | 1003 hPa | 0 mm | - | - | - |
| 1788046642 | 20.56° C | 57% | 1003 hPa | 0 mm | - | - | - |
| 1788046042 | 21.11° C | 60% | 1002.7 hPa | 0 mm | - | - | - |
| 1788045442 | 21.11° C | 57% | 1003 hPa | 0 mm | - | - | - |
| 1788044842 | 21.67° C | 55% | 1003 hPa | 0 mm | - | - | - |
| 1788044242 | 21.67° C | 53% | 1002.7 hPa | 0 mm | - | - | - |
| 1788043642 | 21.67° C | 53% | 1002.7 hPa | 0 mm | - | - | - |
| 1788043042 | 21.67° C | 55% | 1002.7 hPa | 0 mm | - | - | - |
* Rain latest hour (hover to see other rain measurements)
** Current wind speed in m/s (hover to see current wind gust speed)